Time,TemperatureF,DewpointF,PressureIn,WindDirection,WindDirectionDegrees,WindSpeedMPH,WindSpeedGustMPH,Humidity,HourlyPrecipIn,Conditions,Clouds,dailyrainin,SoftwareType,DateUTC
2013-08-01 00:01:00,64.0,64.0,29.90,NW,318,0.0,-999.0,100,-99.99,,,0.00,weatherlink.com 1.10,2013-08-01 04:01:00,
2013-08-01 00:16:00,63.9,64.0,29.89,North,10,0.0,-999.0,100,-99.99,,,0.00,weatherlink.com 1.10,2013-08-01 04:16:00,
2013-08-01 00:31:00,63.7,64.0,29.88,North,10,0.0,-999.0,100,-99.99,,,0.00,weatherlink.com 1.10,2013-08-01 04:31:00,
2013-08-01 00:46:00,63.7,64.0,29.88,North,10,0.0,-999.0,100,-99.99,,,0.00,weatherlink.com 1.10,2013-08-01 04:46:00,
2013-08-01 01:01:00,63.7,64.0,29.88,NNW,328,0.0,-999.0,100,-99.99,,,0.00,weatherlink.com 1.10,2013-08-01 05:01:00,
2013-08-01 01:31:00,63.9,64.0,29.88,NNW,330,0.0,-999.0,100,-99.99,,,0.00,weatherlink.com 1.10,2013-08-01 05:31:00,
2013-08-01 01:46:00,63.9,64.0,29.88,NNW,335,0.0,-999.0,100,-99.99,,,0.00,weatherlink.com 1.10,2013-08-01 05:46:00,
2013-08-01 02:01:00,63.7,64.0,29.86,SSW,212,0.0,-999.0,100,-99.99,,,0.00,weatherlink.com 1.10,2013-08-01 06:01:00,
2013-08-01 02:16:00,63.5,64.0,29.86,SSW,212,0.0,-999.0,100,-99.99,,,0.00,weatherlink.com 1.10,2013-08-01 06:16:00,
2013-08-01 02:31:00,63.5,64.0,29.87,SSW,212,0.0,-999.0,100,-99.99,,,0.00,weatherlink.com 1.10,2013-08-01 06:31:00,
2013-08-01 03:16:00,63.2,63.0,29.84,SSW,212,0.0,-999.0,100,-99.99,,,0.00,weatherlink.com 1.10,2013-08-01 07:16:00,
2013-08-01 03:31:00,63.1,63.0,29.83,SSW,212,0.0,-999.0,100,-99.99,,,0.00,weatherlink.com 1.10,2013-08-01 07:31:00,
2013-08-01 03:46:00,63.2,63.0,29.83,SSW,212,0.0,-999.0,100,-99.99,,,0.00,weatherlink.com 1.10,2013-08-01 07:46:00,
2013-08-01 04:01:00,63.2,63.0,29.84,SSW,212,0.0,-999.0,100,-99.99,,,0.00,weatherlink.com 1.10,2013-08-01 08:01:00,
2013-08-01 04:16:00,63.4,63.0,29.84,SSW,212,0.0,-999.0,100,-99.99,,,0.00,weatherlink.com 1.10,2013-08-01 08:16:00,
2013-08-01 05:31:00,63.9,64.0,29.82,WNW,288,0.0,-999.0,100,-99.99,,,0.00,weatherlink.com 1.10,2013-08-01 09:31:00,
2013-08-01 06:01:00,64.0,64.0,29.83,WNW,288,0.0,-999.0,100,-99.99,,,0.00,weatherlink.com 1.10,2013-08-01 10:01:00,
2013-08-01 06:16:00,64.2,64.0,29.83,WNW,288,0.0,-999.0,100,-99.99,,,0.00,weatherlink.com 1.10,2013-08-01 10:16:00,
2013-08-01 06:31:00,64.2,64.0,29.83,NNW,346,0.0,-999.0,100,-99.99,,,0.00,weatherlink.com 1.10,2013-08-01 10:31:00,
2013-08-01 06:46:00,64.0,64.0,29.83,North,359,0.0,-999.0,100,-99.99,,,0.00,weatherlink.com 1.10,2013-08-01 10:46:00,
2013-08-01 07:46:00,64.2,64.0,29.83,WNW,285,3.0,-999.0,100,-99.99,,,0.00,weatherlink.com 1.10,2013-08-01 11:46:00,
2013-08-01 08:31:00,65.6,66.0,29.84,ESE,106,1.0,-999.0,100,-99.99,,,0.00,weatherlink.com 1.10,2013-08-01 12:31:00,
2013-08-01 08:46:00,65.8,66.0,29.84,NW,309,0.0,-999.0,100,-99.99,,,0.00,weatherlink.com 1.10,2013-08-01 12:46:00,
2013-08-01 09:01:00,66.4,66.0,29.83,South,171,0.0,-999.0,100,-99.99,,,0.00,weatherlink.com 1.10,2013-08-01 13:01:00,
2013-08-01 09:17:00,66.9,66.0,29.83,SSE,165,0.0,-999.0,97,-99.99,,,0.00,weatherlink.com 1.10,2013-08-01 13:17:00,
2013-08-01 10:17:00,69.9,66.0,29.83,East,86,0.0,-999.0,88,-99.99,,,0.00,weatherlink.com 1.10,2013-08-01 14:17:00,
2013-08-01 10:47:00,70.1,66.0,29.84,East,97,0.0,-999.0,86,-99.99,,,0.00,weatherlink.com 1.10,2013-08-01 14:47:00,
2013-08-01 11:32:00,71.5,66.0,29.84,ENE,71,0.0,-999.0,83,-99.99,,,0.00,weatherlink.com 1.10,2013-08-01 15:32:00,
2013-08-01 12:02:00,70.9,65.0,29.84,North,0,0.0,-999.0,82,-99.99,,,0.00,weatherlink.com 1.10,2013-08-01 16:02:00,
2013-08-01 12:17:00,72.3,66.0,29.83,South,169,0.0,-999.0,81,-99.99,,,0.00,weatherlink.com 1.10,2013-08-01 16:17:00,
2013-08-01 12:32:00,74.9,67.0,29.83,North,350,0.0,-999.0,75,-99.99,,,0.00,weatherlink.com 1.10,2013-08-01 16:32:00,
2013-08-01 12:47:00,74.9,67.0,29.82,SE,143,0.0,-999.0,77,-99.99,,,0.00,weatherlink.com 1.10,2013-08-01 16:47:00,
2013-08-01 13:02:00,76.0,66.0,29.81,SE,128,1.0,-999.0,71,-99.99,,,0.00,weatherlink.com 1.10,2013-08-01 17:02:00,
2013-08-01 13:17:00,76.7,67.0,29.81,East,97,0.0,-999.0,71,-99.99,,,0.00,weatherlink.com 1.10,2013-08-01 17:17:00,
2013-08-01 14:02:00,77.4,66.0,29.80,SSE,155,0.0,-999.0,67,-99.99,,,0.00,weatherlink.com 1.10,2013-08-01 18:02:00,
2013-08-01 14:17:00,77.6,64.0,29.80,West,261,0.0,-999.0,63,-99.99,,,0.00,weatherlink.com 1.10,2013-08-01 18:17:00,
2013-08-01 14:32:00,77.7,65.0,29.80,NW,315,0.0,-999.0,64,-99.99,,,0.00,weatherlink.com 1.10,2013-08-01 18:32:00,
2013-08-01 14:47:00,77.7,64.0,29.80,ESE,123,0.0,-999.0,62,-99.99,,,0.00,weatherlink.com 1.10,2013-08-01 18:47:00,
2013-08-01 15:02:00,76.7,64.0,29.79,SSW,205,0.0,-999.0,65,-99.99,,,0.00,weatherlink.com 1.10,2013-08-01 19:02:00,
2013-08-01 15:17:00,77.9,64.0,29.79,NNW,344,0.0,-999.0,62,-99.99,,,0.00,weatherlink.com 1.10,2013-08-01 19:17:00,
2013-08-01 15:32:00,79.0,65.0,29.78,ESE,112,0.0,-999.0,63,-99.99,,,0.00,weatherlink.com 1.10,2013-08-01 19:32:00,
2013-08-01 15:47:00,79.6,65.0,29.78,NW,309,0.0,-999.0,62,-99.99,,,0.00,weatherlink.com 1.10,2013-08-01 19:47:00,
2013-08-01 16:17:00,75.4,63.0,29.80,SSW,210,0.0,-999.0,65,-99.99,,,0.00,weatherlink.com 1.10,2013-08-01 20:17:00,
2013-08-01 16:32:00,75.8,64.0,29.79,ENE,71,0.0,-999.0,68,-99.99,,,0.00,weatherlink.com 1.10,2013-08-01 20:32:00,
2013-08-01 16:47:00,78.6,65.0,29.78,NE,44,0.0,-999.0,63,-99.99,,,0.00,weatherlink.com 1.10,2013-08-01 20:47:00,
2013-08-01 17:02:00,78.6,65.0,29.78,North,6,0.0,-999.0,63,-99.99,,,0.00,weatherlink.com 1.10,2013-08-01 21:02:00,
2013-08-01 17:17:00,78.1,66.0,29.78,SSE,168,0.0,-999.0,67,-99.99,,,0.00,weatherlink.com 1.10,2013-08-01 21:17:00,
2013-08-01 17:32:00,76.8,65.0,29.78,SSE,152,0.0,-999.0,66,-99.99,,,0.00,weatherlink.com 1.10,2013-08-01 21:32:00,
2013-08-01 17:47:00,75.6,63.0,29.79,SSW,198,0.0,-999.0,66,-99.99,,,0.00,weatherlink.com 1.10,2013-08-01 21:47:00,
2013-08-01 18:02:00,74.9,64.0,29.80,West,274,0.0,-999.0,69,-99.99,,,0.00,weatherlink.com 1.10,2013-08-01 22:02:00,
2013-08-01 18:17:00,73.9,63.0,29.80,SW,223,0.0,-999.0,69,-99.99,,,0.00,weatherlink.com 1.10,2013-08-01 22:17:00,
2013-08-01 18:32:00,73.0,64.0,29.80,ESE,119,0.0,-999.0,74,-99.99,,,0.00,weatherlink.com 1.10,2013-08-01 22:32:00,
2013-08-01 19:17:00,71.1,63.0,29.81,ESE,123,0.0,-999.0,76,-99.99,,,0.00,weatherlink.com 1.10,2013-08-01 23:17:00,
2013-08-01 19:32:00,70.3,64.0,29.81,WNW,287,0.0,-999.0,79,-99.99,,,0.00,weatherlink.com 1.10,2013-08-01 23:32:00,
2013-08-01 19:47:00,70.1,64.0,29.82,North,352,0.0,-999.0,81,-99.99,,,0.00,weatherlink.com 1.10,2013-08-01 23:47:00,
2013-08-01 20:32:00,67.1,64.0,29.84,North,356,0.0,-999.0,88,-99.99,,,0.00,weatherlink.com 1.10,2013-08-02 00:32:00,
2013-08-01 21:02:00,66.3,63.0,29.86,North,356,0.0,-999.0,90,-99.99,,,0.00,weatherlink.com 1.10,2013-08-02 01:02:00,
2013-08-01 21:17:00,65.6,63.0,29.86,North,356,0.0,-999.0,90,-99.99,,,0.00,weatherlink.com 1.10,2013-08-02 01:17:00,
2013-08-01 21:32:00,65.5,63.0,29.84,North,354,0.0,-999.0,92,-99.99,,,0.00,weatherlink.com 1.10,2013-08-02 01:32:00,
2013-08-01 21:47:00,65.5,63.0,29.84,North,354,0.0,-999.0,92,-99.99,,,0.00,weatherlink.com 1.10,2013-08-02 01:47:00,
2013-08-01 22:02:00,65.3,63.0,29.86,North,354,0.0,-999.0,92,-99.99,,,0.00,weatherlink.com 1.10,2013-08-02 02:02:00,
2013-08-01 22:17:00,65.3,63.0,29.86,North,354,0.0,-999.0,93,-99.99,,,0.00,weatherlink.com 1.10,2013-08-02 02:17:00,
2013-08-01 22:32:00,65.2,63.0,29.85,North,354,0.0,-999.0,93,-99.99,,,0.00,weatherlink.com 1.10,2013-08-02 02:32:00,
2013-08-01 22:47:00,64.8,63.0,29.86,North,354,0.0,-999.0,93,-99.99,,,0.00,weatherlink.com 1.10,2013-08-02 02:47:00,
2013-08-01 23:18:00,63.7,62.0,29.85,North,354,0.0,-999.0,95,-99.99,,,0.00,weatherlink.com 1.10,2013-08-02 03:18:00,
2013-08-01 23:32:00,63.5,63.0,29.86,North,354,0.0,-999.0,97,-99.99,,,0.00,weatherlink.com 1.10,2013-08-02 03:32:00,
2013-08-01 23:48:00,63.4,63.0,29.86,North,354,0.0,-999.0,97,-99.99,,,0.00,weatherlink.com 1.10,2013-08-02 03:48:00,